Location: Clatteringshaws Loch
(55.0508°N, 4.2860°W)
Time: 11:03:02
(UTC+01:00)

ALOS - Visible Passes

Search period start: 20 August 2017 00:00
Search period end: 30 August 2017 00:00
Orbit: 684 x 687 km, 97.8° (Epoch: 19 August)

Date Brightness Start Highest point End Pass type
(mag) Time Alt. Az. Time Alt. Az. Time Alt. Az.
22 Aug 5.6 21:38:48 10° W 21:40:01 11° W 21:41:13 10° WNW visible
24 Aug 5.2 21:14:16 10° SW 21:17:15 17° W 21:20:13 10° NW visible
27 Aug 5.4 21:30:36 10° WSW 21:32:34 12° W 21:34:31 10° WNW visible
29 Aug 5.1 21:06:33 10° SW 21:09:49 19° W 21:13:06 10° NW visible
